Philadelphia, PA

6:06 AM EST on December 12, 2019 (GMT -0500)
Philadelphia International

Weather History for KPHL - November, 2019

Change the Weather History Date:

Thursday, November 14, 2019

  Actual Average Record
Temperature  
Mean Temperature 36 °F 48 °F  
Max Temperature 45 °F 57 °F 76 °F (1955)
Min Temperature 26 °F 40 °F 19 °F (1986)
Degree Days  
Heating Degree Days 30 17  
Month to date heating degree days 295 206  
Since 1 July heating degree days 447 499  
Cooling Degree Days 0 0  
Month to date cooling degree days 0 0  
Year to date cooling degree days 1610 1300  
Moisture  
Dew Point 20 °F    
Average Humidity 52    
Maximum Humidity 70    
Minimum Humidity 38    
Precipitation  
Precipitation 0.00 in 0.09 in 2.64 in (1972)
Month to date precipitation 0.24 1.30  
Year to date precipitation 41.30 36.28  
Snow  
Snow 0.00 in 0.00 in 0.70 in (1908)
Month to date snowfall T 0.0  
Since 1 July snowfall T 0.0  
Since 1 September snowfall T 0.0  
Snow Depth 0.00 in    
Sea Level Pressure  
Sea Level Pressure 30.39 in    
Wind  
Wind Speed 6 mph ()    
Max Wind Speed 18 mph    
Max Gust Speed 23 mph    
Visibility 10.0 miles    
Events      
T = Trace of Precipitation, MM = Missing Value Source: Averaged Metar Reports

Daily Weather History Graph

Daily Weather History Graph

Search for Another Location

Airport or City:

Astronomy

Nov. 14, 2019 Rise Set
Actual Time 6:44 AM EST 4:45 PM EST
Civil Twilight 6:15 AM EST 5:14 PM EST
Nautical Twilight 5:42 AM EST 5:47 PM EST
Astronomical Twilight 5:10 AM EST 6:19 PM EST
Moon 6:29 PM EST (11/14) 8:37 AM EST (11/14)
Length of Visible Light 10h 59m
Length of Day
10h 01m
Waning Gibbous, 95% of the Moon is Illuminated
Nov 14
Waning Gibbous
Nov 19
Last Quarter
Nov 26
New
Dec 4
First Quarter
Dec 12
Full

Hourly Weather History & Observations

Time (EST) Temp. Windchill Dew Point Humidity Pressure Visibility Wind Dir Wind Speed Gust Speed Precip Events Conditions
12:54 AM 30.0 °F 22.4 °F 12.0 °F 47% 30.45 in 10.0 mi ESE 8.1 mph - N/A   Overcast
1:54 AM 28.0 °F 20.8 °F 12.0 °F 51% 30.45 in 10.0 mi ESE 6.9 mph - N/A   Overcast
2:54 AM 27.0 °F 20.5 °F 12.0 °F 53% 30.44 in 10.0 mi SE 5.8 mph - N/A   Partly Cloudy
3:54 AM 27.0 °F 21.6 °F 12.0 °F 53% 30.43 in 10.0 mi SE 4.6 mph - N/A   Scattered Clouds
4:54 AM 28.0 °F 22.8 °F 12.0 °F 51% 30.43 in 10.0 mi SE 4.6 mph - N/A   Mostly Cloudy
5:54 AM 27.0 °F - 12.0 °F 53% 30.43 in 10.0 mi Calm Calm - N/A   Mostly Cloudy
6:54 AM 27.0 °F 23.0 °F 12.0 °F 53% 30.45 in 10.0 mi ESE 3.5 mph - N/A   Mostly Cloudy
7:54 AM 30.9 °F 27.5 °F 14.0 °F 50% 30.46 in 10.0 mi East 3.5 mph - N/A   Mostly Cloudy
8:54 AM 35.1 °F 29.3 °F 18.0 °F 50% 30.46 in 10.0 mi SSW 6.9 mph - N/A   Mostly Cloudy
9:54 AM 37.0 °F 30.4 °F 19.0 °F 48% 30.45 in 10.0 mi SSW 9.2 mph - N/A   Mostly Cloudy
10:54 AM 39.9 °F 32.9 °F 21.9 °F 49% 30.43 in 10.0 mi SSW 11.5 mph - N/A   Mostly Cloudy
11:54 AM 42.1 °F 35.7 °F 21.0 °F 43% 30.40 in 10.0 mi SSW 11.5 mph - N/A   Mostly Cloudy
12:54 PM 43.0 °F 36.8 °F 19.0 °F 38% 30.37 in 10.0 mi South 11.5 mph - N/A   Mostly Cloudy
1:54 PM 44.1 °F 38.1 °F 21.0 °F 40% 30.35 in 10.0 mi SW 11.5 mph - N/A   Mostly Cloudy
2:54 PM 44.1 °F 37.7 °F 21.0 °F 40% 30.35 in 10.0 mi SSW 12.7 mph - N/A   Mostly Cloudy
3:54 PM 43.0 °F 36.8 °F 21.9 °F 43% 30.35 in 10.0 mi SSW 11.5 mph 18.4 mph N/A   Mostly Cloudy
4:54 PM 42.1 °F 36.6 °F 24.1 °F 49% 30.35 in 10.0 mi SW 9.2 mph - N/A   Mostly Cloudy
5:54 PM 41.0 °F 36.4 °F 25.0 °F 53% 30.34 in 10.0 mi South 6.9 mph - N/A   Mostly Cloudy
6:54 PM 41.0 °F 35.8 °F 26.1 °F 55% 30.33 in 10.0 mi SSW 8.1 mph - N/A   Mostly Cloudy
7:54 PM 39.9 °F 35.8 °F 26.1 °F 58% 30.33 in 10.0 mi SSW 5.8 mph - N/A   Mostly Cloudy
8:54 PM 39.9 °F 35.1 °F 27.0 °F 60% 30.33 in 10.0 mi WSW 6.9 mph - N/A   Mostly Cloudy
9:54 PM 39.0 °F 34.8 °F 28.9 °F 67% 30.33 in 10.0 mi SSW 5.8 mph - N/A   Mostly Cloudy
10:54 PM 37.9 °F 35.5 °F 28.0 °F 68% 30.33 in 10.0 mi West 3.5 mph - N/A   Mostly Cloudy
11:54 PM 37.0 °F 34.5 °F 27.0 °F 67% 30.32 in 10.0 mi WSW 3.5 mph - N/A   Scattered Clouds